TimeMDT,TemperatureF,Dew PointF,Humidity,Sea Level PressureIn,VisibilityMPH,Wind Direction,Wind SpeedMPH,Gust SpeedMPH,PrecipitationIn,Events,Conditions,WindDirDegrees,DateUTC
12:53 AM,66.0,37.9,36,29.84,10.0,SSW,16.1,-,N/A,,Clear,210,2013-05-15 06:53:00
1:53 AM,66.0,37.0,34,29.85,10.0,SSW,17.3,-,N/A,,Partly Cloudy,210,2013-05-15 07:53:00
2:53 AM,62.1,37.9,41,29.86,10.0,SSW,13.8,-,N/A,,Clear,210,2013-05-15 08:53:00
3:53 AM,64.0,34.0,33,29.85,10.0,SW,12.7,-,N/A,,Clear,220,2013-05-15 09:53:00
4:53 AM,59.0,36.0,42,29.87,10.0,SW,10.4,-,N/A,,Clear,220,2013-05-15 10:53:00
5:53 AM,54.0,37.0,53,29.88,10.0,SW,8.1,-,N/A,,Clear,220,2013-05-15 11:53:00
6:53 AM,55.9,36.0,47,29.88,10.0,SW,12.7,-,N/A,,Clear,220,2013-05-15 12:53:00
7:53 AM,59.0,36.0,42,29.89,10.0,SW,16.1,-,N/A,,Clear,220,2013-05-15 13:53:00
8:53 AM,63.0,36.0,37,29.90,10.0,WSW,13.8,-,N/A,,Clear,240,2013-05-15 14:53:00
9:53 AM,64.9,37.0,36,29.88,10.0,West,15.0,-,N/A,,Clear,260,2013-05-15 15:53:00
10:53 AM,66.9,36.0,32,29.88,10.0,WSW,13.8,-,N/A,,Clear,240,2013-05-15 16:53:00
11:53 AM,71.1,36.0,28,29.86,10.0,West,12.7,-,N/A,,Clear,270,2013-05-15 17:53:00
12:53 PM,73.9,30.9,21,29.83,10.0,West,11.5,-,N/A,,Partly Cloudy,270,2013-05-15 18:53:00
1:53 PM,75.2,30.2,19,29.93,10.0,West,11.5,-,N/A,,Clear,260,2013-05-15 19:53:00
2:53 PM,78.1,26.1,15,29.77,10.0,West,9.2,-,N/A,,Clear,260,2013-05-15 20:53:00
3:53 PM,78.1,30.0,17,29.73,10.0,West,12.7,19.6,N/A,,Clear,280,2013-05-15 21:53:00
4:53 PM,78.1,30.9,18,29.72,10.0,WSW,12.7,16.1,N/A,,Clear,250,2013-05-15 22:53:00
5:53 PM,75.9,34.0,22,29.74,10.0,WSW,17.3,-,0.00,Rain,Light Rain,240,2013-05-15 23:53:00
6:53 PM,73.0,36.0,26,29.73,10.0,WSW,8.1,-,0.00,Rain,Light Rain,250,2013-05-16 00:53:00
7:53 PM,71.1,36.0,28,29.73,10.0,WSW,11.5,-,N/A,,Mostly Cloudy,250,2013-05-16 01:53:00
8:53 PM,68.0,37.0,32,29.73,10.0,SW,6.9,-,N/A,,Scattered Clouds,220,2013-05-16 02:53:00
9:53 PM,62.1,35.1,37,29.74,10.0,South,5.8,-,N/A,,Partly Cloudy,190,2013-05-16 03:53:00
10:53 PM,64.0,35.1,34,29.75,10.0,SSW,9.2,-,N/A,,Clear,200,2013-05-16 04:53:00
11:53 PM,64.0,36.0,35,29.73,10.0,SSW,6.9,-,N/A,,Clear,200,2013-05-16 05:53:00